[TLELIST] Archives

 

[list_settings.list_name] Current TLEs

April 17th 2016 PST

HST 1 20580U 90037B 16107.84122509 .00001166 00000-0 62050-4 0 9991 2 20580 28.4704 303.8147 0002608 268.3639 218.6209 15.08303312225846 ISS (ZARYA) 1 25544U 98067A 16108.48817039 -.00002350 00000-0 -28166-4 0 9995 2 25544 51.6419 0.7949 0001085 64.5859 121.0157 15.54244964995530 CXO 1 25867U 99040B 16109.61567813 .00000114 00000-0 00000+0 0 9999 2 25867 76.0623 299.2730 7139656 262.4712 359.8984 0.37804460 14448 ____________________________________________________________________ These 2-Line ...Continue Reading

[list_settings.list_name] Current TLEs

April 16th 2016 PST

HST 1 20580U 90037B 16106.36313657 .00001266 00000-0 68347-4 0 9999 2 20580 28.4706 313.5741 0002646 252.3189 112.9212 15.08300841225610 ISS (ZARYA) 1 25544U 98067A 16107.25876216 .00011692 00000-0 18283-3 0 9996 2 25544 51.6448 6.9248 0001473 49.5347 92.6288 15.54243375995340 CXO 1 25867U 99040B 16109.61567813 .00000114 00000-0 00000+0 0 9999 2 25867 76.0623 299.2730 7139656 262.4712 359.8984 0.37804460 14448 ____________________________________________________________________ These 2-Line ...Continue Reading

[list_settings.list_name] Current TLEs

April 15th 2016 PST

HST 1 20580U 90037B 16105.15775463 .00001419 00000-0 77939-4 0 9999 2 20580 28.4706 321.5331 0002637 239.4290 47.7753 15.08299214225439 ISS (ZARYA) 1 25544U 98067A 16106.52480324 -.00000356 00000-0 18451-5 0 9991 2 25544 51.6429 10.5903 0001087 52.9954 299.7664 15.54218584995220 CXO 1 25867U 99040B 16106.97134591 .00000134 00000-0 00000+0 0 9990 2 25867 76.0730 299.3539 7139856 262.5201 359.9353 0.37800425 14438 ____________________________________________________________________ These 2-Line ...Continue Reading

[list_settings.list_name] Current TLEs

April 14th 2016 PST

HST 1 20580U 90037B 16105.15775463 .00001419 00000-0 77939-4 0 9999 2 20580 28.4706 321.5331 0002637 239.4290 47.7753 15.08299214225439 ISS (ZARYA) 1 25544U 98067A 16105.20382544 .00012951 00000-0 20202-3 0 9998 2 25544 51.6460 17.1690 0001746 76.7012 80.1027 15.54201600995026 CXO 1 25867U 99040B 16106.97134591 .00000134 00000-0 00000+0 0 9990 2 25867 76.0730 299.3539 7139856 262.5201 359.9353 0.37800425 14438 ____________________________________________________________________ These 2-Line ...Continue Reading

[list_settings.list_name] Current TLEs

April 13th 2016 PST

HST 1 20580U 90037B 16103.87829861 .00001258 00000-0 67839-4 0 9997 2 20580 28.4707 329.9812 0002685 224.5912 301.5755 15.08295556225242 ISS (ZARYA) 1 25544U 98067A 16104.53010417 .00006834 00000-0 10904-3 0 9991 2 25544 51.6442 20.5228 0002855 62.8711 281.9149 15.54472076994915 CXO 1 25867U 99040B 16106.97134591 .00000134 00000-0 00000+0 0 9990 2 25867 76.0730 299.3539 7139856 262.5201 359.9353 0.37800425 14438 ____________________________________________________________________ These 2-Line ...Continue Reading

[list_settings.list_name] Current TLEs

April 12th 2016 PST

HST 1 20580U 90037B 16102.87483542 .00001075 00000-0 56364-4 0 9996 2 20580 28.4707 336.6067 0002715 213.6818 253.0338 15.08292760225081 ISS (ZARYA) 1 25544U 98067A 16103.26897973 .00005937 00000-0 95743-4 0 9998 2 25544 51.6439 26.8111 0002728 59.0457 63.7175 15.54450150994728 CXO 1 25867U 99040B 16104.32739681 .00000208 00000-0 00000+0 0 9990 2 25867 76.0824 299.4172 7139698 262.5945 359.9736 0.37795907 14427 ____________________________________________________________________ These 2-Line ...Continue Reading

[list_settings.list_name] Current TLEs

April 11th 2016 PST

HST 1 20580U 90037B 16101.46427083 .00001038 00000-0 54030-4 0 9995 2 20580 28.4708 345.9203 0002758 198.0511 154.3467 15.08290045224876 ISS (ZARYA) 1 25544U 98067A 16102.18174939 .00005971 00000-0 96306-4 0 9992 2 25544 51.6438 32.2331 0002707 55.9749 98.6184 15.54436250994551 CXO 1 25867U 99040B 16104.32739681 .00000208 00000-0 00000+0 0 9990 2 25867 76.0824 299.4172 7139698 262.5945 359.9736 0.37795907 14427 ____________________________________________________________________ These 2-Line ...Continue Reading

[list_settings.list_name] Current TLEs

April 10th 2016 PST

HST 1 20580U 90037B 16100.18921296 .00001082 00000-0 56799-4 0 9991 2 20580 28.4708 354.3392 0002810 183.7868 71.5412 15.08287899224686 ISS (ZARYA) 1 25544U 98067A 16101.40099685 .00008843 00000-0 13913-3 0 9993 2 25544 51.6433 36.1330 0002863 57.4331 45.2124 15.54433573994439 CXO 1 25867U 99040B 16101.68351697 +.00000263 +00000-0 +00000-0 0 9995 2 25867 076.0837 299.4705 7142186 262.6838 359.9969 00.37799933003273 ____________________________________________________________________ These 2-Line ...Continue Reading

[list_settings.list_name] Current TLEs

April 9th 2016 PST

HST 1 20580U 90037B 16100.18921296 .00001082 00000-0 56799-4 0 9991 2 20580 28.4708 354.3392 0002810 183.7868 71.5412 15.08287899224686 ISS (ZARYA) 1 25544U 98067A 16100.25227745 .00005325 00000-0 86753-4 0 9990 2 25544 51.6449 41.8528 0002535 50.0860 100.1652 15.54409405994254 CXO 1 25867U 99040B 16101.68351697 +.00000263 +00000-0 +00000-0 0 9995 2 25867 076.0837 299.4705 7142186 262.6838 359.9969 00.37799933003273 ____________________________________________________________________ These 2-Line ...Continue Reading

[list_settings.list_name] Current TLEs

April 8th 2016 PST

HST 1 20580U 90037B 16098.90010259 .00001076 00000-0 56395-4 0 9990 2 20580 28.4707 2.8507 0002859 169.8939 271.9199 15.08285346224486 ISS (ZARYA) 1 25544U 98067A 16099.34992164 .00005379 00000-0 87594-4 0 9994 2 25544 51.6442 46.3517 0002478 50.7546 86.6965 15.54398737994114 CXO 1 25867U 99040B 16101.68232995 .00000263 00000-0 00000+0 0 9993 2 25867 76.0837 299.4704 7142176 262.6839 359.8357 0.37799873 14413 ____________________________________________________________________ These 2-Line ...Continue Reading
  • This mailing list is a public mailing list - anyone may join or leave, at any time.
  • This mailing list is announce-only.

International Space Station (ISS) / Hubble Space Telescope (HST) / Chandra X-Ray Observatory Orbital Data via EMAIL

Privacy Policy:

Private list